Location: French Creek State Gamelands
(40.1750°N, 75.7969°W)
Time: 05:50:26
(UTC-04:00)

ISS - All Passes

Search period start: 22 August 2014 00:00
Search period end: 01 September 2014 00:00
Orbit: 413 x 419 km, 51.6° (Epoch: 22 August)

Date Brightness Start Highest point End Pass type
(mag) Time Alt. Az. Time Alt. Az. Time Alt. Az.
22 Aug - 13:51:30 10° SSW 13:54:40 44° SE 13:57:51 10° ENE daylight
22 Aug - 15:28:40 10° W 15:31:31 26° NNW 15:34:22 10° NNE daylight
22 Aug - 17:07:46 10° NNW 17:09:09 12° N 17:10:31 10° NNE daylight
22 Aug - 18:44:53 10° NNW 18:46:58 15° NNE 18:49:04 10° NE daylight
22 Aug - 20:20:58 10° NW 20:24:16 57° NE 20:27:33 10° ESE visible
22 Aug - 21:58:38 10° W 22:00:40 15° SW 22:02:42 10° SSW visible
23 Aug - 13:03:29 10° S 13:06:14 24° SE 13:09:00 10° ENE daylight
23 Aug - 14:39:43 10° W 14:42:51 37° NNW 14:45:59 10° NE daylight
23 Aug - 16:18:35 10° NW 16:20:18 13° N 16:22:02 10° NNE daylight
23 Aug - 17:56:29 10° NNW 17:58:09 13° N 17:59:50 10° NE daylight
23 Aug - 19:32:32 10° NW 19:35:38 35° NNE 19:38:45 10° E daylight
23 Aug - 21:09:25 10° WNW 21:12:17 27° SW 21:15:08 10° SSE visible
24 Aug - 12:16:02 10° SSE 12:17:51 14° SE 12:19:40 10° E daylight
24 Aug - 13:50:56 10° WSW 13:54:13 62° NW 13:57:31 10° NE daylight
24 Aug - 15:29:20 10° NW 15:31:29 16° NNW 15:33:37 10° NNE daylight
24 Aug - 17:07:57 10° NNW 17:09:18 12° N 17:10:38 10° NNE daylight
24 Aug - 18:44:07 10° NNW 18:46:56 25° NNE 18:49:45 10° E daylight
24 Aug - 20:20:35 10° WNW 20:23:49 48° SW 20:27:02 10° SSE visible
25 Aug - 13:02:19 10° SW 13:05:38 75° SE 13:08:57 10° NE daylight
25 Aug - 14:40:07 10° WNW 14:42:40 20° NNW 14:45:13 10° NNE daylight
25 Aug - 16:19:10 10° NNW 16:20:24 12° N 16:21:38 10° NNE daylight
25 Aug - 17:55:43 10° NNW 17:58:09 19° NNE 18:00:36 10° ENE daylight
25 Aug - 19:31:55 10° NW 19:35:16 89° SW 19:38:36 10° SE daylight
26 Aug - 12:13:57 10° SSW 12:17:05 40° SE 12:20:13 10° ENE daylight
26 Aug - 13:50:59 10° W 13:53:53 27° NNW 13:56:47 10° NE daylight
26 Aug - 15:30:04 10° NNW 15:31:29 12° N 15:32:54 10° NNE daylight
26 Aug - 17:07:18 10° NNW 17:09:19 15° NNE 17:11:19 10° NE daylight
26 Aug - 18:43:21 10° NW 18:46:38 53° NNE 18:49:53 10° ESE daylight
26 Aug - 20:20:51 10° W 20:23:04 17° SW 20:25:17 10° S visible
27 Aug - 11:25:56 10° S 11:28:35 22° SE 11:31:14 10° E daylight
27 Aug - 13:01:59 10° WSW 13:05:08 40° NNW 13:08:19 10° NE daylight
27 Aug - 14:40:47 10° NW 14:42:34 14° NNW 14:44:21 10° NNE daylight
27 Aug - 16:18:48 10° NNW 16:20:24 13° N 16:22:00 10° NE daylight
27 Aug - 17:54:51 10° NW 17:57:55 33° NNE 18:00:58 10° E daylight
27 Aug - 19:31:39 10° WNW 19:34:35 29° SW 19:37:31 10° SSE daylight
28 Aug - 10:38:34 10° SSE 10:40:07 13° SE 10:41:39 10° E daylight
28 Aug - 12:13:08 10° WSW 12:16:26 68° NW 12:19:45 10° NE daylight
28 Aug - 13:51:27 10° WNW 13:53:39 16° NNW 13:55:52 10° NNE daylight
28 Aug - 15:30:10 10° NNW 15:31:27 12° N 15:32:45 10° NNE daylight
28 Aug - 17:06:22 10° NNW 17:09:07 23° NNE 17:11:52 10° E daylight
28 Aug - 18:42:46 10° WNW 18:46:02 53° SW 18:49:16 10° SE daylight
29 Aug - 11:24:29 10° SW 11:27:46 67° SE 11:31:05 10° ENE daylight
29 Aug - 13:02:09 10° WNW 13:04:46 21° NNW 13:07:23 10° NNE daylight
29 Aug - 14:41:14 10° NNW 14:42:28 12° N 14:43:43 10° NNE daylight
29 Aug - 16:17:53 10° NNW 16:20:15 18° NNE 16:22:36 10° ENE daylight
29 Aug - 17:54:03 10° NW 17:57:23 83° NE 18:00:42 10° SE daylight
29 Aug - 19:33:10 10° WSW 19:33:37 10° SW 19:34:05 10° SW daylight
30 Aug - 10:36:05 10° SSW 10:39:09 36° SE 10:42:14 10° ENE daylight
30 Aug - 12:12:58 10° W 12:15:55 29° NNW 12:18:52 10° NE daylight
30 Aug - 13:52:01 10° NNW 13:53:29 12° N 13:54:57 10° NNE daylight
30 Aug - 15:29:22 10° NNW 15:31:18 14° NNE 15:33:14 10° NE daylight
30 Aug - 17:05:25 10° NW 17:08:39 48° NNE 17:11:53 10° ESE daylight
30 Aug - 18:42:45 10° W 18:45:08 18° SW 18:47:30 10° S daylight
31 Aug - 09:48:03 10° S 09:50:35 20° SE 09:53:07 10° E daylight
31 Aug - 11:23:54 10° WSW 11:27:06 44° NNW 11:30:18 10° NE daylight
31 Aug - 13:02:37 10° NW 13:04:29 14° NNW 13:06:20 10° NNE daylight
31 Aug - 14:40:47 10° NNW 14:42:19 13° N 14:43:51 10° NE daylight
31 Aug - 16:16:50 10° NW 16:19:51 31° NNE 16:22:51 10° E daylight
31 Aug - 17:53:32 10° WNW 17:56:33 32° SW 17:59:34 10° SSE daylight
